Location: Seasalter
(51.3333°N, 1.0167°E)
Time: 09:56:24
(UTC+00:00)

Cosmos 2322 - Pass Details

Date: 26 September 2023
Orbit: 842 x 852 km, 71.0° (Epoch: 09 December)

Event Time Altitude Azimuth Distance (km) Brightness Sun altitude
Rises 04:19:28 0° 329° (NNW) 3,429 6.7 -14.4°
Reaches altitude 10° 04:21:56 10° 331° (NNW) 2,489 6.0 -14.1°
Maximum altitude 04:27:41 84° 60° (ENE) 861 3.8 -13.2°
Drops below altitude 10° 04:33:21 10° 149° (SSE) 2,466 6.3 -12.4°
Sets 04:35:47 0° 150° (SSE) 3,396 7.1 -12.0°
